Regional Weather Roundup
Issued by NWS Mobile, AL

Home | Current Version | Previous Version | Text Only | Print | Product List | Glossary On
Versions: 1 2 3 4 5 6 7 8 9 10 11 12 13 14 15 16 17 18 19 20 21 22 23 24 25 26 27 28 29 30 31 32 33 34 35 36 37 38 39 40 41 42 43 44 45 46 47 48 49 50
742
ASUS44 KMOB 230112
RWRMOB
REGIONAL WEATHER ROUNDUP
NATIONAL WEATHER SERVICE MOBILE AL
700 PM CST WED FEB 22 2017

NOTE: "FAIR" INDICATES FEW OR NO CLOUDS BELOW 12,000 FEET WITH NO
      SIGNIFICANT WEATHER AND/OR OBSTRUCTIONS TO VISIBILITY.

  * THESE STATIONS ARE PART OF THE UNIVERSITY OF SOUTH ALABAMA
    MESONET AND ARE NOT UNDER NWS OR FAA QUALITY CONTROL.

ALZ061>064-230200-
COASTAL ALABAMA

CITY           SKY/WX    TMP DP  RH WIND       PRES   REMARKS
MOBILE REG APT PTCLDY    63  56  78 NW6       29.80R
BROOKLEY FIELD PTCLDY    66  59  78 N7        29.80R
USA CAMPUS*    NOT AVBL
DOG RIVER*     NOT AVBL


CITY           SKY/WX    TMP DP  RH WIND       PRES   REMARKS
GULF SHORES    CLEAR     65  60  85 NW5       29.77S

$$

ALZ051>060-230200-
INTERIOR SOUTHWEST AND SOUTH CENTRAL ALABAMA

CITY           SKY/WX    TMP DP  RH WIND       PRES   REMARKS
GREENVILLE     CLOUDY    66  61  84 CALM      29.81R
EVERGREEN      PTCLDY    62  59  90 CALM      29.80R
ATMORE*        NOT AVBL
ANDALUSIA/OPP  CLOUDY    69  60  73 NE5       29.79R
ANDALUSIA*     NOT AVBL
FLORALA APT    CLEAR     64  59  83 NE7       29.81R
FLORALA*       NOT AVBL

$$

FLZ001>006-230200-
WESTERN FLORIDA PANHANDLE

CITY           SKY/WX    TMP DP  RH WIND       PRES   REMARKS
PENSACOLA      PTCLDY    69  59  70 N5        29.77R
NAS PENSACOLA  MOCLDY    66  60  81 N7        29.76R
MILTON         PTCLDY    63  60  90 N5        29.78R
WHTNG S FIELD  PTCLDY    68  60  75 N6        29.78R


CITY           SKY/WX    TMP DP  RH WIND       PRES   REMARKS
JAY*           NOT AVBL
DUKE FIELD     PTCLDY    65  58  79 NE5       29.78R
CRESTVIEW      CLEAR     62  58  86 CALM      29.79R
VALPARAISO     PTCLDY    66  60  79 N7        29.76R
DESTIN         CLEAR     71  66  84 NE5       29.76R

$$

MSZ076-079-230200-
INTERIOR SOUTHEAST MISSISSIPPI

CITY           SKY/WX    TMP DP  RH WIND       PRES   REMARKS
LEAKESVILLE*   NOT AVBL
AGRICOLA*      NOT AVBL

$$

MARINE OBSERVATIONS

STATION/POSITION TIME  TEMP    WIND        PRES    WAVE
                       AIR SEA DIR/SP/G            HT/PER
                 (UTC) (F)     (DEG/KT/KT) (MB)    (FT/S)
PASCAGOULA       0048   67     350/  5/  7 1008.2R
PETIT BOIS ISLND 0048   67     360/ 13/ 15 1008.9R
GRAND BAY        2345   67     360/  7     1009.0S
KATRINA CUT      0030          350/ 11     1008.1R
CEDAR POINT      0030   66     350/  7     1007.8S
E DAUPHIN ISLAND 0000   67     340/ 13/ 14 1007.6R
MIDDLE BAY LIGHT 0030   67     360/ 10     1008.1R
USCG MOBILE BAY  0030   67 64  340/  5/  7 1009.1R
STATE DOCKS      0048   67 64              1008.5R
MEAHER PARK      0030   67     360/  4     1008.1S
WEEKS BAY        2345   68                   N/A
FORT MORGAN      0048   67     350/ 12/ 15   N/A
12 S ORANGE BCH  2350   68 68  340/ 14/ 16 1007.4R   3/ 4
PENSACOLA BAY    0042   71 66  360/  3/  5 1008.2R
67 S FORT MORGAN 0030   68     330/  8     1007.5S

$$

SELECTED LOCATIONS ACROSS THE REGION

CITY           SKY/WX    TMP DP  RH WIND       PRES   REMARKS
NEW ORLEANS    CLEAR     68  57  68 CALM      29.80R
GULFPORT       CLEAR     65  56  72 N7        29.78S
PASCAGOULA AP  CLEAR     61  55  81 N3        29.78R
PASCAGOULA*    NOT AVBL
HATTIESBURG    CLEAR     59  55  87 CALM      29.82R
LAUREL         CLEAR     59  52  77 NW5       29.83S
MERIDIAN       CLEAR     61  58  90 CALM      29.82S
JACKSON        CLEAR     61  54  77 E5        29.80R
MONTGOMERY     LGT RAIN  69  59  70 N5        29.83R
TROY           CLOUDY    66  62  87 N7        29.82R
ASHFORD*       NOT AVBL
DOTHAN         CLEAR     63  62  97 N5        29.82R
PANAMA CITY    MOCLDY    68  60  75 N6        29.75R

$$





USA.gov is the U.S. government's official web portal to all federal, state and local government web resources and services.